Wind_Speed
44 45 45 46 47 48 49 50 51 50 49 50 51 52 53 54 55 55 55 56 57 57 58 58 58 57 57 57 56 54 52 52 52 52 53 53 52 52
45 45 46 46 47 48 49 50 51 51 50 50 51 53 54 54 55 55 56 57 57 57 57 56 55 54 54 53 52 50 48 48 49 49 49 49 49 49
45 46 46 47 47 48 49 50 50 51 51 51 52 53 54 54 54 55 55 56 56 55 54 52 51 51 50 49 48 46 46 46 47 46 46 46 47 47
45 45 46 46 47 48 49 50 50 51 51 52 52 53 53 53 54 54 54 54 53 52 50 49 49 48 47 46 44 43 44 45 45 44 43 42 42 42
44 44 45 46 46 48 48 49 50 51 52 52 52 52 52 52 53 53 53 53 51 49 48 47 47 46 44 42 41 41 42 41 41 40 39 38 38 37
43 44 44 45 46 47 48 49 49 50 51 51 51 51 51 51 51 51 51 49 47 46 45 45 43 42 41 40 39 38 37 35 35 35 35 35 34 34
43 43 44 45 46 47 48 48 49 49 49 49 49 49 49 49 49 49 48 45 43 43 42 40 39 39 39 37 36 34 33 32 32 32 32 31 30 30
42 43 44 45 46 47 47 47 48 48 48 48 48 48 48 48 47 46 45 43 41 40 39 38 37 37 36 34 33 31 30 30 29 29 28 27 26 26
43 44 45 45 45 45 45 46 46 47 47 47 47 46 46 45 44 43 42 41 40 39 37 35 35 34 33 32 30 28 27 27 26 25 26 24 23 23
43 45 45 45 44 45 45 45 45 46 46 45 45 44 43 43 42 41 40 38 37 36 35 34 33 31 31 29 28 26 25 25 25 24 24 23 22 21
43 44 44 44 44 45 45 44 44 44 43 43 42 41 41 41 40 38 37 35 34 34 34 33 31 29 28 27 27 26 24 24 23 23 22 21 20 19
44 44 43 44 44 44 44 43 43 42 41 40 39 39 38 37 36 35 35 35 34 33 32 31 30 28 26 26 25 24 23 23 22 22 20 18 17 15
43 43 43 43 43 43 43 42 41 40 38 37 36 35 34 34 33 34 35 35 33 33 32 30 29 26 25 23 22 22 21 21 21 19 18 16 15 13
42 42 42 42 42 41 40 39 37 36 35 34 33 32 32 32 32 33 34 33 32 31 30 29 26 23 22 21 21 19 19 18 18 17 15 14 12 10
40 41 41 40 40 38 37 36 34 33 32 31 31 31 30 30 31 32 32 31 30 29 28 26 24 22 20 20 19 17 16 15 15 14 13 11 9 8
39 38 38 36 36 35 35 33 32 31 30 30 29 29 29 30 30 30 30 28 27 26 25 24 22 20 19 18 17 15 14 12 12 11 10 9 8 7
35 34 33 33 33 33 31 30 29 29 29 28 28 28 29 29 29 29 27 25 24 22 22 21 20 18 17 16 14 13 11 10 10 9 8 9 8 7
32 31 31 31 31 30 29 29 29 29 28 27 27 28 28 27 26 26 24 23 21 20 20 19 17 16 15 13 12 10 9 8 9 8 8 8 8 7
30 30 30 30 30 29 29 29 28 28 27 27 27 26 26 24 23 23 22 20 19 18 17 16 15 13 12 10 10 9 8 7 7 7 7 7 7 7
30 30 30 30 29 29 28 28 27 26 26 26 25 24 22 21 21 20 19 18 17 15 15 14 12 11 9 8 7 7 7 7 6 6 7 8 7 7
29 29 29 29 28 27 27 26 25 24 24 24 23 21 21 19 19 18 17 16 14 13 12 11 10 8 7 7 6 7 7 7 7 7 8 8 7 7
28 28 28 27 26 26 25 24 23 23 23 22 21 20 18 17 17 16 15 13 12 11 10 9 7 6 6 5 6 7 7 8 8 8 9 9 8 8
27 27 26 25 25 25 23 22 21 21 20 19 18 17 16 16 16 14 13 11 10 8 8 6 5 5 5 5 6 6 8 9 9 9 10 10 11 11
Wind_Direction
287 288 289 290 291 291 292 293 294 296 296 298 299 300 301 301 302 302 302 302 303 302 301 299 298 297 297 295 294 294 292 290 289 287 284 282 280 278
288 289 290 291 292 293 293 294 295 296 297 299 300 301 301 302 302 303 303 304 304 303 302 301 301 300 299 297 297 295 293 292 291 289 286 284 281 279
288 289 290 291 292 293 294 295 296 297 298 300 301 302 302 302 302 303 305 305 305 304 304 303 302 302 301 300 298 295 294 294 293 291 289 286 283 280
289 290 291 292 293 294 295 296 297 297 299 300 302 303 303 303 304 305 306 306 307 306 306 305 305 304 303 302 299 297 295 295 294 293 291 287 285 282
289 290 291 293 294 295 297 297 298 299 300 301 303 304 304 304 305 306 307 307 307 307 306 306 306 305 304 304 302 301 299 297 295 294 293 291 288 284
289 290 292 293 295 296 297 298 299 300 301 302 304 304 305 305 306 307 307 308 307 307 307 307 307 306 306 306 306 305 304 301 298 297 297 295 293 287
289 290 292 293 295 297 298 299 300 301 302 304 305 305 306 306 307 308 308 309 309 309 309 309 309 308 307 307 309 309 307 305 303 301 300 299 297 294
289 291 292 294 297 298 299 300 301 302 303 304 305 306 307 307 308 309 310 310 310 310 310 310 311 311 310 309 311 311 310 309 306 305 302 300 300 298
290 291 293 296 297 298 300 301 301 302 304 305 306 307 308 308 309 309 311 312 313 313 312 313 314 313 312 312 312 312 313 313 312 309 307 305 304 303
292 293 294 296 297 298 299 301 302 304 305 306 307 308 308 309 310 311 312 313 314 314 314 315 315 316 314 313 314 315 315 315 316 314 312 309 306 305
293 295 295 296 297 298 299 301 302 304 305 306 307 307 308 310 311 312 313 315 316 315 315 315 316 316 315 316 316 314 314 317 319 317 315 312 310 308
292 295 295 295 296 298 299 301 302 304 305 306 307 307 309 310 312 313 315 316 317 317 316 316 317 315 314 315 316 315 315 317 319 318 318 316 314 309
291 293 295 295 296 297 299 301 302 303 304 306 308 309 310 311 313 315 317 318 318 319 319 319 319 318 317 318 319 318 319 320 322 321 320 321 319 315
291 293 295 295 296 297 299 300 302 303 304 307 309 310 311 312 314 316 318 319 319 320 320 321 322 322 322 323 323 323 322 323 326 326 324 326 326 324
292 293 293 294 296 298 299 301 302 303 304 306 309 311 312 313 315 317 319 319 320 321 322 323 324 325 326 326 327 328 327 329 332 335 337 340 342 343
293 294 295 296 297 298 299 301 302 303 304 307 309 311 312 314 315 318 319 319 321 322 323 325 326 328 329 329 331 333 333 337 344 348 353 357 357 356
295 295 295 296 297 298 299 300 301 302 304 307 308 310 312 314 315 318 320 320 321 323 324 325 328 330 333 334 337 339 343 351 358 1 3 8 10 10
295 295 296 296 296 296 297 299 299 300 303 306 308 310 312 314 316 318 320 321 322 324 324 326 328 330 334 339 343 346 353 0 4 6 10 15 19 26
293 294 296 296 295 294 295 297 297 298 301 304 307 309 311 314 317 319 320 321 323 325 327 328 330 333 336 342 349 352 355 1 8 14 18 22 34 51
291 293 294 295 294 294 294 294 295 296 298 302 306 309 312 314 317 320 322 324 325 328 330 332 335 338 339 345 357 6 7 13 19 21 24 35 53 68
290 293 294 295 295 293 292 292 293 294 297 301 303 306 310 314 317 319 322 326 328 330 334 338 343 345 351 2 14 25 30 35 39 41 44 50 62 75
290 292 293 295 296 294 292 290 291 292 295 298 299 303 308 311 315 317 321 325 328 332 337 344 349 358 11 20 31 42 48 51 55 57 54 59 75 87
290 291 293 294 294 295 292 289 291 292 293 295 298 302 306 308 313 316 319 323 329 337 345 352 5 28 48 57 60 60 59 59 58 59 68 78 84 83
Height
5701 5697 5694 5690 5686 5682 5678 5674 5670 5667 5664 5659 5653 5646 5639 5632 5625 5618 5612 5605 5598 5590 5584 5577 5571 5565 5559 5553 5548 5542 5537 5532 5528 5524 5520 5517 5514 5512
5691 5687 5683 5680 5676 5672 5667 5663 5658 5654 5650 5647 5640 5634 5627 5620 5613 5605 5598 5591 5584 5577 5569 5563 5557 5551 5545 5539 5534 5528 5523 5518 5514 5509 5505 5501 5499 5496
5680 5677 5673 5669 5665 5661 5656 5652 5647 5642 5638 5635 5628 5621 5614 5607 5601 5593 5585 5578 5571 5563 5556 5549 5543 5537 5531 5526 5520 5515 5510 5505 5500 5495 5491 5487 5484 5482
5671 5667 5663 5659 5655 5650 5646 5641 5636 5631 5627 5623 5617 5610 5603 5595 5588 5581 5574 5566 5559 5551 5544 5537 5531 5525 5519 5514 5508 5503 5498 5492 5488 5483 5479 5474 5471 5468
5661 5657 5653 5649 5645 5640 5635 5630 5626 5620 5615 5610 5605 5598 5591 5584 5577 5570 5562 5555 5547 5540 5533 5527 5520 5514 5508 5502 5497 5492 5486 5481 5477 5472 5467 5463 5459 5457
5651 5647 5644 5640 5635 5630 5625 5620 5615 5610 5604 5598 5593 5587 5580 5573 5565 5559 5553 5545 5537 5530 5524 5517 5510 5504 5498 5493 5488 5482 5476 5471 5466 5462 5458 5454 5450 5447
5641 5638 5634 5630 5625 5620 5615 5610 5605 5599 5593 5588 5582 5576 5569 5562 5555 5548 5541 5535 5528 5521 5515 5508 5502 5496 5490 5484 5479 5474 5468 5463 5459 5454 5450 5446 5442 5439
5632 5628 5625 5620 5615 5610 5605 5600 5594 5589 5583 5577 5571 5565 5559 5552 5545 5538 5531 5526 5521 5515 5507 5501 5494 5488 5482 5477 5472 5467 5462 5457 5452 5448 5443 5439 5436 5432
5622 5619 5615 5610 5606 5601 5596 5591 5585 5578 5573 5567 5561 5554 5548 5542 5536 5530 5523 5516 5510 5504 5498 5493 5487 5481 5475 5470 5466 5461 5456 5451 5447 5442 5438 5433 5430 5426
5613 5609 5605 5601 5596 5592 5587 5582 5576 5570 5564 5557 5551 5545 5538 5532 5526 5520 5515 5510 5504 5496 5490 5487 5482 5476 5470 5465 5461 5456 5452 5447 5442 5437 5433 5429 5425 5422
5603 5599 5595 5591 5587 5583 5578 5573 5568 5561 5555 5548 5542 5536 5530 5524 5518 5513 5508 5502 5498 5492 5485 5480 5476 5471 5466 5461 5456 5451 5447 5442 5438 5433 5429 5424 5421 5418
5594 5590 5586 5581 5577 5572 5568 5563 5558 5553 5547 5541 5535 5529 5523 5517 5511 5506 5501 5495 5490 5486 5480 5475 5470 5465 5461 5457 5452 5447 5443 5439 5434 5430 5425 5421 5418 5415
5583 5580 5576 5571 5567 5563 5558 5554 5548 5544 5538 5533 5528 5522 5516 5511 5505 5500 5495 5489 5484 5479 5474 5469 5464 5458 5454 5451 5448 5443 5439 5435 5431 5426 5423 5419 5416 5414
5573 5570 5566 5562 5558 5554 5549 5544 5540 5535 5531 5526 5521 5516 5511 5505 5500 5495 5489 5483 5478 5473 5468 5463 5458 5454 5450 5446 5443 5439 5435 5431 5428 5424 5420 5417 5415 5413
5563 5560 5556 5552 5548 5544 5540 5536 5532 5528 5523 5519 5514 5510 5505 5500 5495 5490 5484 5479 5474 5468 5464 5459 5454 5450 5446 5443 5439 5436 5433 5430 5426 5422 5419 5416 5414 5412
5554 5550 5546 5543 5539 5535 5532 5528 5524 5520 5517 5513 5508 5504 5499 5494 5490 5485 5480 5475 5471 5466 5460 5455 5451 5447 5444 5440 5436 5433 5430 5428 5425 5422 5419 5417 5414 5412
5544 5541 5537 5534 5531 5528 5524 5521 5517 5514 5510 5506 5502 5498 5494 5489 5484 5480 5475 5471 5466 5463 5458 5454 5449 5445 5442 5439 5435 5432 5429 5427 5425 5422 5420 5418 5416 5414
5536 5533 5529 5526 5523 5520 5517 5514 5511 5507 5504 5500 5497 5493 5488 5484 5480 5475 5471 5467 5463 5459 5455 5451 5447 5444 5441 5438 5435 5432 5430 5428 5426 5424 5422 5420 5418 5416
5528 5525 5522 5519 5516 5513 5510 5507 5504 5501 5497 5494 5491 5487 5483 5479 5475 5471 5467 5463 5459 5456 5452 5448 5445 5442 5440 5438 5436 5433 5431 5429 5427 5425 5423 5421 5419 5417
5519 5517 5514 5511 5508 5505 5502 5500 5497 5494 5491 5488 5485 5482 5478 5475 5471 5467 5464 5460 5456 5453 5450 5447 5444 5441 5439 5437 5435 5434 5431 5429 5428 5426 5424 5422 5421 5420
5511 5509 5506 5503 5500 5498 5495 5493 5490 5488 5485 5483 5480 5477 5474 5470 5467 5464 5461 5457 5454 5452 5449 5446 5443 5441 5438 5437 5436 5434 5433 5431 5429 5427 5426 5424 5423 5422
5504 5501 5499 5496 5493 5491 5488 5486 5484 5482 5479 5477 5475 5472 5469 5466 5464 5461 5458 5456 5453 5450 5448 5445 5443 5441 5439 5438 5437 5435 5434 5433 5431 5430 5428 5427 5426 5425
5496 5494 5491 5489 5486 5484 5482 5480 5478 5476 5474 5472 5470 5467 5465 5463 5461 5458 5456 5453 5451 5449 5447 5445 5443 5442 5440 5439 5438 5437 5436 5435 5434 5433 5431 5430 5429 5428